Date,TemperatureHighF,TemperatureAvgF,TemperatureLowF,DewpointHighF,DewpointAvgF,DewpointLowF,HumidityHigh,HumidityAvg,HumidityLow,PressureMaxIn,PressureMinIn,WindSpeedMaxMPH,WindSpeedAvgMPH,GustSpeedMaxMPH,PrecipitationSumIn
2013-4-24,71.0,63.5,55.0,56.0,53.7,52.0,90,71,56,30.24,30.12,10,6,20,0.44
2013-4-25,76.0,63.5,53.0,53.0,47.8,42.0,82,60,31,30.33,30.21,13,6,23,0.09
2013-4-26,78.0,69.1,61.0,69.0,60.8,51.0,95,75,59,30.26,30.15,10,2,20,0.00
2013-4-27,78.0,72.8,69.0,70.0,68.5,66.0,96,87,70,30.15,29.99,12,4,27,0.03
2013-4-28,78.0,71.2,66.0,69.0,66.0,63.0,95,84,65,30.05,29.92,7,2,22,0.07
2013-4-29,83.0,71.0,63.0,70.0,64.9,61.0,98,83,57,29.98,29.87,10,1,20,0.01
2013-4-30,83.0,71.5,68.0,70.0,67.8,65.0,96,89,63,29.89,29.80,7,2,18,0.19
2013-5-1,83.0,72.9,66.0,70.0,67.0,64.0,96,83,60,29.90,29.83,327,1,327,0.03
2013-5-2,79.0,68.5,57.0,70.0,64.2,54.0,96,87,66,30.08,29.89,11,4,25,0.12
2013-5-3,70.0,56.9,48.0,54.0,44.5,37.0,90,67,33,30.11,30.01,13,7,26,0.09
2013-5-4,74.0,61.4,45.0,58.0,46.1,37.0,88,61,28,30.09,29.88,13,4,30,0.00
2013-5-5,73.0,62.2,50.0,58.0,44.8,41.0,81,55,36,30.08,29.93,9,4,20,0.00
2013-5-6,80.0,65.2,49.0,54.0,49.8,46.0,91,61,37,30.09,29.97,6,2,14,0.00
2013-5-7,85.0,71.7,60.0,62.0,57.2,53.0,86,63,35,30.08,29.99,11,2,22,0.00
2013-5-8,79.0,70.4,61.0,66.0,62.0,58.0,93,76,50,30.11,30.02,11,2,20,0.00
2013-5-9,78.0,72.2,65.0,72.0,68.3,64.0,96,88,74,30.08,29.91,9,2,23,0.00
2013-5-10,75.0,68.1,64.0,72.0,63.2,-99.9,97,88,67,30.08,29.86,327,3,327,4.46
2013-5-11,86.0,72.2,65.0,71.0,66.2,-99.9,98,85,57,30.11,29.84,16,2,26,1.76
2013-5-12,88.0,73.5,63.0,65.0,60.7,57.0,93,67,38,30.20,30.08,8,3,19,0.03
2013-5-13,80.0,68.1,54.0,60.0,52.2,43.0,92,62,28,30.32,30.19,8,2,13,0.00
2013-5-14,82.0,70.3,59.0,65.0,56.9,46.0,93,67,29,30.27,30.16,327,2,327,0.00
2013-5-15,78.0,70.3,62.0,68.0,64.6,59.0,95,83,63,30.18,30.00,13,3,25,0.00
2013-5-16,80.0,69.2,68.0,70.0,46.8,-99.9,95,83,68,30.01,29.89,12,4,23,0.00
2013-5-17,83.0,75.5,72.0,73.0,66.8,-99.9,94,85,71,30.01,29.91,11,4,22,0.00
2013-5-18,85.0,78.6,75.0,73.0,72.0,69.0,93,81,60,30.03,29.95,11,5,24,0.00
2013-5-19,85.0,79.0,75.0,74.0,72.9,71.0,91,82,65,29.98,29.90,14,6,28,0.00
2013-5-20,86.0,80.3,77.0,76.0,74.2,72.0,89,82,70,29.97,29.86,12,6,25,0.00
2013-5-21,85.0,81.2,78.0,76.0,74.6,74.0,91,81,70,29.91,29.78,327,5,327,0.00
2013-5-22,85.0,77.0,68.0,78.0,72.0,66.0,96,85,63,29.96,29.80,10,2,16,0.26
2013-5-23,87.0,79.5,73.0,77.0,73.7,71.0,98,84,63,30.08,29.94,327,3,327,0.01
2013-5-24,92.0,80.6,72.0,77.0,72.8,67.0,94,78,55,30.16,30.04,8,2,15,0.00
2013-5-25,87.0,78.2,72.0,75.0,70.3,65.0,89,77,63,30.20,30.11,8,2,20,0.00
2013-5-26,87.0,78.6,72.0,74.0,70.3,66.0,94,77,54,30.14,30.07,10,2,23,0.00
2013-5-27,85.0,78.2,71.0,73.0,70.5,66.0,95,78,54,30.09,29.99,12,3,25,0.00
2013-5-28,86.0,78.1,73.0,72.0,70.5,64.0,91,79,61,30.04,29.95,14,3,24,0.00
2013-5-29,85.0,78.9,72.0,74.0,71.8,70.0,94,80,62,29.97,29.88,10,3,22,0.00
2013-5-30,88.0,80.6,75.0,76.0,73.9,73.0,94,81,63,29.95,29.87,10,3,27,0.00
2013-5-31,86.0,80.4,77.0,77.0,75.4,74.0,95,85,71,29.97,29.89,327,3,327,0.05
2013-6-1,88.0,81.9,78.0,77.0,74.4,-99.9,95,82,66,29.95,29.88,13,4,25,0.02
2013-6-2,87.0,77.5,70.0,76.0,72.7,68.0,96,86,65,30.03,29.89,9,3,15,0.82
2013-6-3,93.0,81.3,71.0,76.0,71.4,69.0,94,74,48,29.96,29.85,7,2,15,0.01
2013-6-4,94.0,83.3,72.0,75.0,71.6,68.0,91,70,44,29.95,29.83,8,2,14,0.00
2013-6-5,96.0,84.8,77.0,78.0,75.5,71.0,93,76,49,29.91,29.78,8,2,16,0.00
2013-6-6,89.0,78.2,69.0,77.0,73.3,65.0,97,86,64,29.89,29.73,16,1,34,0.98
2013-6-7,87.0,75.5,67.0,73.0,68.7,66.0,98,82,53,29.93,29.85,6,1,11,0.71
2013-6-8,85.0,76.5,70.0,74.0,69.5,62.0,93,80,57,29.96,29.87,11,1,21,0.00
2013-6-9,88.0,77.2,71.0,77.0,71.8,69.0,95,84,64,29.98,29.88,9,1,16,0.02
2013-6-10,89.0,80.7,71.0,78.0,73.9,69.0,97,81,61,30.01,29.96,9,2,16,0.02
2013-6-11,91.0,83.2,76.0,79.0,76.1,74.0,96,80,61,30.08,30.00,9,2,21,0.00
2013-6-12,91.0,83.3,76.0,78.0,75.6,74.0,96,79,61,30.10,30.00,8,2,18,0.00
2013-6-13,97.0,85.8,76.0,79.0,75.3,72.0,96,74,46,30.08,29.92,8,2,14,0.00
2013-6-14,101.0,86.3,74.0,80.0,76.9,70.0,94,75,47,29.98,29.86,8,2,21,0.30
2013-6-15,94.0,82.7,74.0,79.0,75.3,72.0,95,80,56,30.01,29.92,7,2,16,0.30
2013-6-16,92.0,84.2,77.0,77.0,74.5,69.0,92,74,49,30.06,29.96,10,2,20,0.00
2013-6-17,92.0,83.8,76.0,78.0,74.5,72.0,93,75,55,30.03,29.92,12,3,21,0.00
2013-6-18,89.0,82.0,74.0,78.0,74.3,71.0,95,79,62,30.01,29.91,10,3,20,0.54
2013-6-19,85.0,77.1,72.0,80.0,73.9,71.0,98,91,75,30.04,29.95,10,1,19,2.59
2013-6-20,97.0,81.5,74.0,79.0,74.8,71.0,98,82,46,30.11,30.01,4,1,16,0.82
2013-6-22,92.0,88.1,84.0,77.0,74.6,72.0,75,65,54,30.10,29.98,8,2,12,0.00
2013-6-24,90.0,86.0,79.0,77.0,74.9,74.0,84,70,60,30.09,30.03,13,5,26,0.04
2013-6-25,79.0,76.5,75.0,76.0,73.7,72.0,95,91,84,30.08,30.05,0,0,5,0.03
2013-6-27,100.0,91.4,83.0,78.0,75.5,73.0,81,61,44,30.01,29.94,9,3,15,0.00
2013-6-28,96.0,86.9,80.0,79.0,76.4,72.0,91,73,50,29.99,29.80,8,3,15,0.00
2013-6-29,103.0,89.7,80.0,78.0,74.5,68.0,86,64,35,29.83,29.70,7,4,19,0.00
2013-7-1,93.0,86.9,77.0,69.0,66.0,62.0,76,51,40,29.95,29.88,6,2,13,0.00
2013-7-2,93.0,82.0,71.0,69.0,65.7,61.0,83,61,35,30.01,29.94,8,2,13,0.00
2013-7-3,95.0,82.2,71.0,68.0,64.8,61.0,81,58,34,30.04,29.93,9,3,16,0.00
2013-7-4,97.0,83.3,71.0,71.0,66.8,61.0,88,61,34,30.00,29.91,10,2,16,0.00
2013-7-5,97.0,82.7,73.0,74.0,70.0,64.0,86,68,36,29.99,29.92,8,2,19,0.00
2013-7-6,93.0,79.5,72.0,75.0,72.2,69.0,94,80,51,29.98,29.91,7,3,14,0.00
2013-7-7,89.0,80.2,76.0,78.0,75.2,74.0,94,85,67,30.06,29.94,11,2,25,0.15
2013-7-8,90.0,81.0,75.0,79.0,73.8,-99.9,96,82,60,30.15,30.04,10,2,16,0.14
2013-7-9,94.0,84.0,76.0,78.0,75.6,72.0,96,77,50,30.18,30.08,327,2,327,0.00
2013-7-10,92.0,83.2,76.0,77.0,72.3,-99.9,92,73,53,30.11,29.98,9,2,15,0.00
2013-7-11,99.0,84.8,78.0,77.0,74.8,70.0,88,74,42,30.02,29.92,9,2,15,0.00
2013-7-12,99.0,85.5,77.0,79.0,75.2,73.0,95,74,45,29.98,29.87,8,2,14,0.33
2013-7-13,98.0,84.0,72.0,75.0,67.4,52.0,95,63,24,29.98,29.88,327,2,327,0.34
2013-7-14,92.0,82.4,73.0,74.0,69.0,65.0,89,66,44,29.98,29.91,6,1,10,0.01
2013-7-15,90.0,81.8,77.0,76.0,73.7,70.0,90,77,59,30.10,29.94,8,3,16,0.00
2013-7-16,89.0,79.7,74.0,76.0,74.0,71.0,93,84,61,30.16,30.06,327,4,327,0.18
2013-7-17,94.0,80.7,75.0,78.0,74.4,72.0,95,83,51,30.21,30.12,9,3,20,0.13
2013-7-18,95.0,81.3,73.0,77.0,72.7,70.0,95,78,47,30.16,30.02,8,2,18,0.08
2013-7-19,94.0,77.9,73.0,77.0,72.5,71.0,95,85,54,30.08,29.96,6,2,14,0.09
2013-7-20,89.0,78.5,72.0,77.0,71.2,-99.9,97,81,55,30.01,29.91,4,1,18,0.03
2013-7-21,78.0,78.0,78.0,75.0,75.0,75.0,90,90,90,29.98,29.98,0,0,1,0.00
2013-7-29,92.0,91.3,90.0,74.0,72.9,72.0,60,56,53,30.09,30.09,3,3,9,0.00
2013-8-13,97.0,89.2,81.0,79.0,72.6,-99.9,83,63,45,30.05,29.92,10,4,22,0.29
2013-8-14,93.0,81.0,75.0,80.0,74.2,-99.9,95,86,56,30.00,29.94,9,1,19,0.08
2013-8-15,88.0,74.1,73.0,77.0,62.0,-99.9,95,79,60,30.03,29.92,5,2,9,0.19
2013-8-16,79.0,77.1,76.0,74.0,72.6,72.0,87,86,83,29.98,29.97,0,0,1,0.19
2013-8-19,95.0,79.5,79.0,72.0,48.8,-99.9,78,53,40,30.03,29.96,7,2,14,0.00
2013-8-20,84.0,75.6,73.0,77.0,71.4,-99.9,97,90,76,30.09,29.98,7,1,12,2.68
2013-8-21,95.0,81.5,72.0,80.0,74.5,71.0,97,81,52,30.11,30.01,327,2,327,0.01
2013-8-22,97.0,85.2,75.0,77.0,73.9,70.0,94,71,44,30.10,29.97,7,2,14,0.01
2013-8-23,98.0,86.8,77.0,78.0,74.5,71.0,92,70,45,30.02,29.89,11,2,16,0.00
2013-8-24,95.0,82.1,74.0,75.0,71.5,-99.9,93,74,49,30.08,29.98,13,5,25,0.00
2013-8-25,88.0,78.5,74.0,78.0,74.1,72.0,94,87,69,30.14,30.04,10,4,20,0.08
2013-8-26,82.0,76.3,74.0,76.0,73.5,72.0,95,92,79,30.17,30.09,327,3,327,0.33
2013-8-27,95.0,78.2,71.0,76.0,72.0,69.0,97,84,46,30.14,30.07,5,2,10,0.09
2013-8-28,100.0,92.4,81.0,77.0,73.4,70.0,85,56,39,30.09,29.98,5,1,11,0.00
2013-8-29,95.0,84.1,77.0,78.0,75.2,72.0,94,76,48,30.08,29.97,8,2,16,0.00
2013-8-30,93.0,82.6,74.0,76.0,73.4,72.0,93,75,53,30.05,29.92,8,1,12,0.00
2013-8-31,92.0,82.9,74.0,78.0,71.8,-99.9,94,73,49,29.99,29.87,12,3,21,0.00
2013-9-1,81.0,77.7,76.0,75.0,74.2,74.0,93,89,81,29.91,29.89,3,0,8,0.00
2013-9-3,97.0,84.2,77.0,77.0,74.6,71.0,95,76,43,29.98,29.90,7,1,16,0.26
2013-9-4,95.0,83.2,75.0,80.0,75.7,73.0,96,80,54,30.06,29.94,7,1,18,0.25
2013-9-5,96.0,81.3,76.0,79.0,75.3,74.0,94,84,50,30.11,30.01,6,1,13,0.74
2013-9-6,94.0,82.3,74.0,78.0,74.8,72.0,95,80,54,30.11,29.99,6,1,13,0.60
2013-9-7,94.0,80.7,75.0,77.0,71.9,-99.9,95,78,54,30.06,29.97,13,1,24,0.00
2013-9-8,95.0,81.9,70.0,76.0,71.5,68.0,95,74,42,30.02,29.92,327,1,327,0.00
2013-9-9,87.0,77.4,72.0,77.0,72.7,70.0,95,86,68,30.03,29.96,6,1,10,0.00
2013-11-13,42.0,42.0,42.0,34.0,33.2,33.0,72,71,71,30.45,30.44,2,0,4,0.00
2013-11-14,43.0,39.8,38.0,35.0,32.7,31.0,83,76,71,30.44,30.36,6,2,9,0.00
2013-11-22,70.0,66.7,61.0,67.0,64.5,59.0,94,93,90,30.22,30.16,6,2,11,0.05
2013-11-23,61.0,52.9,46.0,60.0,49.1,-99.9,97,89,81,30.39,30.20,11,6,26,0.02
2013-11-24,55.0,46.7,41.0,41.0,32.9,30.0,81,60,39,30.44,30.30,13,7,25,0.01
2013-11-25,44.0,41.9,40.0,42.0,37.7,33.0,96,85,68,30.33,29.96,12,5,18,2.20
2013-11-26,43.0,41.9,40.0,42.0,40.7,39.0,95,95,94,30.21,29.91,10,5,20,1.32
2013-11-27,56.0,43.5,36.0,40.0,36.1,33.0,95,77,44,30.45,30.21,8,3,15,0.08
2013-11-28,55.0,40.0,33.0,36.0,32.5,29.0,90,76,42,30.53,30.41,5,1,8,0.01
2013-11-29,66.0,44.9,32.0,40.0,33.9,28.0,92,70,29,30.55,30.42,6,1,11,0.01
2013-11-30,73.0,49.9,36.0,47.0,38.3,-99.9,90,70,36,30.45,30.26,3,0,8,0.00
2013-12-1,70.0,56.4,42.0,58.0,48.8,39.0,90,77,52,30.27,29.99,7,2,13,0.00
2013-12-2,76.0,67.1,61.0,66.0,62.3,58.0,95,85,64,29.99,29.73,10,4,21,0.00
2013-12-3,76.0,68.9,64.0,69.0,66.3,63.0,98,92,76,29.79,29.69,13,5,25,0.00
2013-12-4,77.0,72.7,69.0,73.0,70.5,68.0,97,93,82,29.88,29.78,10,5,24,0.00
2013-12-5,79.0,71.4,55.0,73.0,68.8,54.0,96,92,82,29.99,29.87,12,5,28,0.05
2013-12-6,56.0,46.8,40.0,55.0,44.9,36.0,96,92,87,30.32,29.95,10,6,21,0.08
2013-12-7,40.0,38.2,37.0,37.0,33.7,-99.9,91,86,83,30.39,30.28,11,5,19,0.02
2013-12-8,43.0,38.8,37.0,42.0,37.0,34.0,95,93,88,30.29,30.08,6,2,12,0.54
2013-12-11,50.0,49.0,48.0,42.0,41.4,40.0,78,75,72,30.50,30.37,5,2,12,0.00
2013-12-12,59.0,46.2,38.0,41.0,36.4,33.0,87,70,41,30.56,30.37,9,3,15,0.00
2013-12-13,64.0,50.6,41.0,63.0,43.9,32.0,96,78,67,30.37,29.91,10,2,27,0.31
2013-12-14,66.0,57.5,47.0,64.0,52.4,-99.9,97,85,70,30.22,29.86,12,5,25,0.46
2013-12-15,61.0,47.0,39.0,42.0,38.0,35.0,88,72,46,30.35,30.22,11,3,19,0.01
2013-12-16,62.0,46.6,34.0,44.0,38.5,32.0,93,76,41,30.37,30.26,5,1,11,0.00
2013-12-17,75.0,51.4,37.0,51.0,43.0,35.0,94,77,34,30.36,30.26,4,1,10,0.01
2013-12-18,69.0,52.8,41.0,55.0,44.3,39.0,96,77,38,30.37,30.20,5,1,16,0.01
2013-12-19,73.0,62.4,50.0,66.0,57.4,47.0,94,85,64,30.20,29.97,13,3,31,0.00
2013-12-20,75.0,70.8,67.0,70.0,68.2,65.0,95,91,84,30.00,29.87,15,6,32,0.00
2013-12-21,74.0,68.4,59.0,72.0,65.6,-99.9,97,93,88,29.88,29.63,18,6,40,0.59
2013-12-22,65.0,57.9,45.0,62.0,55.0,39.0,98,91,80,30.29,29.83,8,2,16,0.55
2013-12-23,56.0,44.5,39.0,40.0,35.6,32.0,84,72,47,30.54,30.29,10,5,20,0.01
2013-12-24,61.0,43.6,33.0,39.0,34.5,30.0,92,73,38,30.60,30.37,10,2,15,0.00
2013-12-25,61.0,45.4,36.0,41.0,36.5,33.0,89,73,39,30.43,30.33,5,1,10,0.00
2013-12-26,62.0,49.5,39.0,43.0,38.9,33.0,89,70,38,30.44,30.31,8,1,14,0.00
2013-12-27,54.0,49.6,47.0,41.0,39.0,36.0,79,67,52,30.46,30.32,7,3,13,0.00
2013-12-28,56.0,48.5,42.0,45.0,39.7,-99.9,92,74,64,30.32,30.06,6,1,9,0.00
2013-12-29,69.0,50.6,37.0,45.0,40.2,35.0,95,72,30,30.18,30.04,3,0,6,0.00
2013-12-30,50.0,48.1,44.0,45.0,42.2,39.0,86,80,73,30.39,30.14,7,2,13,0.00
2013-12-31,51.0,45.4,41.0,41.0,38.7,36.0,90,78,59,30.45,30.31,8,3,13,0.00
2014-1-1,59.0,51.8,45.0,55.0,48.3,39.0,96,88,75,30.32,30.06,4,1,11,0.01
2014-1-2,58.0,50.5,40.0,56.0,41.0,27.0,97,72,43,30.44,30.04,11,5,24,0.19